Location: San Gennaro Vesuviano
(40.8833°N, 14.5333°E)
Time: 21:31:28
(UTC+00:00)

Cosmos 1190 Rocket - Pass Details

Date: 22 April 2021
Orbit: 757 x 779 km, 74.1° (Epoch: 10 May)

Event Time Altitude Azimuth Distance (km) Brightness Sun altitude
Rises 19:14:02 0° 188° (S) 3,223 7.0 -15.4°
Reaches altitude 10° 19:16:25 10° 186° (S) 2,298 6.2 -15.8°
Maximum altitude 19:21:34 63° 105° (ESE) 850 3.9 -16.6°
Drops below altitude 10° 19:26:43 10° 26° (NNE) 2,301 6.6 -17.4°
Sets 19:29:06 0° 23° (NNE) 3,228 7.4 -17.8°
